Location: Guferjoch
(46.7462°N, 8.4506°E)
Time: 23:39:07
(UTC+00:00)

Lacrosse 5 - Pass Details

Date: 14 July 2020
Orbit: 717 x 720 km, 57.0° (Epoch: 02 August)

Event Time Altitude Azimuth Distance (km) Brightness Sun altitude
Exits shadow 01:49:49 - 274° (W) 3,026 4.8 -14.9°
Reaches altitude 10° 01:52:12 10° 284° (WNW) 2,204 4.2 -14.7°
Maximum altitude 01:56:39 30° 345° (NNW) 1,283 3.6 -14.2°
Drops below altitude 10° 02:01:07 10° 47° (NE) 2,209 5.8 -13.8°
Sets 02:03:47 0° 58° (ENE) 3,131 6.5 -13.5°
